GEFSNE_500_meanwind_276.txt.gz
Wind_Speed
7 8 8 8 8 8 9 9 10 10 10 10 11 11 11 12 12 13 13 14 15 15 16 16 17 17 18 17 18 18 19 19 20 20 20 21 21 22
7 8 8 8 9 9 10 10 10 10 11 12 12 12 13 13 14 14 15 15 16 16 17 17 17 18 18 18 18 19 20 20 21 21 20 21 21 21
8 8 8 8 9 10 11 11 11 12 13 13 14 14 15 15 15 15 16 16 16 17 17 18 18 19 19 20 20 21 21 22 22 22 23 22 22 22
9 9 9 9 10 11 11 12 12 13 14 14 15 16 16 17 17 17 17 18 18 18 19 19 20 20 20 20 21 21 22 22 23 23 23 23 23 23
9 9 9 10 11 12 12 13 14 15 15 16 16 17 18 19 19 19 19 20 20 20 21 21 21 21 21 21 21 22 22 23 23 24 24 24 24 24
10 10 10 11 12 13 14 15 15 16 17 18 18 19 19 20 20 20 21 21 22 22 22 22 22 22 21 21 22 22 23 23 24 24 25 25 25 25
11 12 12 12 14 15 16 16 16 17 18 19 20 21 21 21 21 22 22 23 23 23 23 23 22 23 23 23 23 23 23 24 25 25 25 25 25 25
13 13 14 15 16 17 18 17 18 18 20 21 22 22 23 23 23 23 23 23 23 24 24 24 24 25 25 25 25 25 25 25 25 25 26 25 25 25
14 15 16 17 18 18 19 19 19 20 21 22 23 24 25 24 24 24 24 24 25 25 26 26 26 25 25 25 26 27 27 27 26 26 26 26 25 25
17 17 18 19 19 21 21 21 22 23 23 24 24 25 25 26 26 26 26 26 27 28 28 28 27 27 26 26 27 28 28 28 28 27 26 26 25 24
19 19 20 21 22 22 23 24 24 25 26 26 26 26 26 27 27 27 28 29 29 30 31 30 29 28 28 28 28 29 29 29 29 28 27 26 25 24
21 22 23 23 24 24 25 25 25 26 27 27 28 27 27 28 29 29 30 30 31 31 31 32 31 30 29 29 29 29 29 29 29 28 27 26 26 25
23 23 24 24 25 26 27 27 27 28 28 29 29 29 29 29 30 30 31 32 32 32 32 33 32 31 30 29 30 30 29 28 28 28 27 26 26 26
25 25 25 26 27 27 28 28 29 29 29 30 30 30 30 30 30 30 31 33 34 33 33 32 31 31 31 30 30 30 30 29 28 27 27 27 27 27
26 27 27 27 28 29 29 29 30 30 30 30 30 31 30 30 30 31 32 33 33 33 33 32 32 32 32 31 31 30 30 30 29 28 28 28 27 27
28 28 29 29 29 29 29 29 30 30 31 31 31 31 31 31 31 32 33 33 33 33 32 32 32 32 32 32 31 30 30 30 29 29 28 27 27 27
29 29 29 30 30 30 30 30 31 31 30 30 31 31 32 32 32 33 33 33 33 33 32 32 32 32 32 31 30 30 29 29 30 29 28 28 28 28
29 29 30 30 30 30 31 31 31 31 30 30 31 32 32 33 33 32 33 33 33 32 31 31 31 31 30 30 31 30 29 29 29 29 29 29 28 28
30 31 31 31 31 30 30 30 31 31 31 31 32 32 32 33 33 32 33 33 32 32 31 31 31 30 30 30 30 30 30 30 30 30 30 29 29 28
32 32 32 31 31 30 30 31 31 31 32 32 32 33 33 33 32 32 32 32 31 32 31 30 30 30 31 30 30 30 30 30 30 30 29 28 28 27
32 31 31 31 31 31 30 30 31 31 31 32 32 33 33 32 32 32 31 31 31 30 30 29 29 30 30 30 29 29 29 29 29 29 28 27 27 26
31 31 31 32 31 31 30 31 31 31 31 32 32 32 32 32 31 31 31 31 31 30 30 29 28 29 29 30 29 28 28 28 28 28 27 27 27 26
31 32 32 32 32 31 32 32 31 31 32 32 32 32 31 30 30 31 32 32 32 31 31 29 29 29 29 29 29 28 28 28 28 28 27 26 26 26

GEFSNE_500_meanwind_282.txt.gz
Wind_Speed
4 4 4 4 4 4 5 6 6 6 7 7 8 8 9 9 10 11 11 12 12 13 13 14 15 15 16 16 17 17 17 18 18 18 19 20 21 21
4 5 5 5 5 5 5 6 6 7 8 9 9 9 10 10 12 12 13 13 13 14 15 16 16 16 17 17 18 18 19 19 19 20 20 21 21 21
5 5 5 5 5 6 6 7 8 8 9 9 10 10 11 12 13 13 14 14 15 15 16 17 17 17 18 18 18 19 19 20 20 21 21 21 21 22
7 6 6 7 7 7 8 9 10 10 10 11 11 12 12 13 14 14 15 16 17 17 18 18 19 19 19 20 20 20 20 20 21 21 22 22 22 22
7 7 8 8 8 9 10 11 11 11 12 12 13 13 14 15 15 16 17 18 18 18 19 20 20 20 21 22 22 22 22 22 22 22 22 22 22 22
8 9 9 9 10 10 10 11 12 13 13 14 14 15 16 17 17 17 17 18 19 20 21 21 22 22 23 23 23 22 22 23 23 24 24 23 24 24
10 10 10 11 12 12 12 12 13 14 15 15 16 17 18 18 18 19 19 19 20 21 22 23 23 24 24 24 23 24 24 24 24 25 25 25 25 25
11 12 12 13 13 13 13 14 14 15 16 17 18 19 19 19 20 20 21 21 22 23 24 24 25 25 25 25 25 25 25 25 26 26 25 25 25 26
13 14 14 14 15 15 16 16 17 18 18 19 20 21 21 22 22 22 23 23 24 24 25 25 26 26 26 25 25 25 26 26 27 27 26 26 27 27
14 15 15 16 17 17 18 18 19 20 21 21 22 22 23 24 24 24 24 24 25 25 26 26 26 27 27 27 27 27 27 28 28 28 28 27 27 27
16 17 18 18 19 19 19 20 20 21 22 23 23 24 25 25 25 26 25 25 26 27 27 27 27 27 28 28 28 28 29 29 29 29 29 28 28 28
18 18 19 20 21 22 21 21 22 23 24 24 25 25 25 25 25 26 25 26 26 27 28 27 27 28 27 27 28 29 29 29 29 29 29 29 29 28
19 20 20 21 21 21 22 22 23 24 24 24 25 25 25 25 26 26 27 27 28 28 29 28 28 28 28 27 28 29 29 28 28 28 28 29 28 28
21 20 20 21 21 21 22 23 24 24 25 25 25 26 26 26 26 27 27 28 29 30 30 29 28 28 28 27 27 28 28 27 27 27 27 27 27 27
21 21 21 22 23 23 23 24 25 25 26 26 26 27 27 27 27 28 28 29 30 30 30 29 28 28 28 28 28 28 28 27 27 27 27 26 26 26
23 23 23 24 24 25 25 26 26 27 27 27 27 28 28 29 29 29 29 29 30 29 29 30 30 29 29 29 29 28 27 27 28 27 27 27 27 27
24 24 24 25 26 26 27 27 28 28 28 28 28 29 29 29 29 29 29 29 29 29 29 30 30 30 29 29 29 27 27 27 28 28 27 28 28 28
25 26 26 27 27 28 28 28 29 29 29 29 29 29 29 29 29 29 30 30 30 30 30 30 30 29 29 29 29 28 28 28 28 28 27 27 27 26
27 28 28 29 29 29 29 30 30 30 29 30 30 30 30 30 29 29 30 31 31 30 30 30 29 29 29 29 28 29 28 28 29 28 27 27 27 27
29 29 30 29 30 30 30 30 30 30 30 30 31 31 31 30 30 30 30 30 30 30 30 30 29 28 28 28 28 28 29 29 30 29 28 27 27 26
31 31 31 30 30 30 30 30 30 31 30 31 32 31 31 31 31 31 32 31 30 29 29 29 29 28 28 28 28 28 29 30 30 30 29 28 28 27
32 31 31 31 30 30 30 30 31 31 31 31 32 32 31 31 31 31 32 30 29 29 29 29 29 29 29 29 29 29 29 30 30 30 30 29 28 28
33 32 32 31 31 30 30 31 32 32 32 33 34 33 32 32 32 32 32 31 30 30 29 29 29 29 29 29 29 29 29 29 29 29 29 28 27 27

GEFSNE_500_meanwind_288.txt.gz
Wind_Speed
6 6 7 7 7 6 5 6 6 7 8 9 9 9 9 10 10 11 12 13 13 14 14 14 15 15 16 16 17 18 19 20 21 21 22 22 22 22
7 7 8 8 8 7 7 8 8 9 9 9 9 10 10 10 11 12 12 13 13 14 15 15 16 16 17 18 19 19 20 21 22 22 22 22 22 22
8 8 8 8 8 8 8 9 9 10 10 10 11 11 11 12 13 13 14 14 15 15 16 17 17 18 18 19 20 21 21 22 22 23 22 22 22 22
9 9 9 9 9 9 10 11 11 11 11 12 12 13 13 14 14 15 15 15 16 17 17 17 18 19 20 20 21 22 23 23 23 23 23 23 23 23
10 10 10 10 11 11 11 12 12 13 13 13 14 14 15 16 16 16 17 17 18 19 19 19 19 20 21 22 22 23 24 24 25 25 25 24 24 24
12 12 12 12 12 12 13 13 13 14 14 15 15 16 16 17 18 19 19 19 19 20 21 21 22 23 24 24 24 24 25 25 25 26 25 25 25 25
13 13 14 14 14 14 15 15 15 15 16 16 17 18 18 19 20 21 21 21 21 22 22 23 23 24 25 25 26 26 26 26 26 27 27 26 26 26
15 15 15 15 16 15 15 16 16 17 17 18 19 19 20 21 21 21 22 22 23 23 24 24 25 26 26 27 27 27 27 27 27 27 27 27 26 26
16 16 16 17 16 16 16 17 17 18 18 19 20 21 21 22 22 23 23 24 24 24 25 25 25 26 27 28 28 28 28 27 27 28 28 28 27 26
18 18 18 18 19 18 19 18 18 18 19 20 21 23 23 24 24 23 24 24 24 24 25 25 26 26 27 28 28 29 28 28 28 29 28 27 27 27
19 20 20 20 20 20 20 20 19 20 21 21 22 23 24 24 24 24 24 25 25 26 26 26 26 26 27 28 28 28 28 28 29 29 28 27 26 27
19 20 21 21 21 21 21 20 20 20 21 21 22 23 24 24 24 25 25 26 26 26 26 26 27 27 28 29 29 28 28 28 28 28 27 27 27 27
20 21 21 21 21 21 22 21 21 21 22 23 23 24 25 25 25 26 26 27 27 27 26 26 27 28 28 28 29 29 28 28 27 27 28 27 27 27
22 22 21 22 21 22 22 22 23 23 24 25 25 25 26 27 27 27 28 28 27 27 28 28 28 28 29 29 29 29 29 28 28 28 28 28 28 27
23 22 22 23 23 24 24 24 25 25 26 26 27 27 28 28 28 28 28 28 28 29 29 29 28 29 29 29 29 29 29 29 29 29 29 29 29 27
25 24 24 25 26 26 26 27 27 27 27 27 28 29 29 30 29 29 29 29 29 30 31 30 29 29 29 29 29 29 29 29 29 29 29 29 28 27
27 27 27 27 28 28 28 29 30 30 30 30 30 30 30 30 30 30 31 31 31 31 31 30 29 30 30 30 29 29 29 29 29 30 29 29 29 28
29 29 29 30 31 30 30 31 31 32 32 32 31 31 31 31 31 31 31 31 30 29 30 30 30 29 29 29 29 28 28 29 29 29 29 29 29 29
31 31 31 32 32 32 32 32 32 33 33 33 32 33 34 33 31 30 30 30 30 29 30 29 29 29 29 29 29 29 29 29 29 29 29 29 29 28
33 33 33 34 34 34 34 34 34 34 34 34 34 34 34 32 31 31 31 31 30 30 29 30 30 30 29 29 30 29 29 29 30 29 29 29 28 28
34 34 34 35 35 36 35 35 35 35 35 35 35 35 34 33 32 32 32 31 31 30 31 31 31 31 31 30 30 30 30 30 30 29 29 29 29 28
35 35 35 35 36 36 36 35 35 35 35 36 36 35 34 33 33 32 32 31 32 32 32 32 32 31 32 31 31 31 31 31 30 29 29 29 28 27
35 35 35 35 36 35 35 35 36 36 37 37 35 34 34 34 34 33 33 32 32 32 32 33 32 32 32 31 30 31 30 30 29 28 28 27 27 27

GEFSNE_500_meanwind_294.txt.gz
Wind_Speed
9 9 9 10 10 10 10 11 10 10 10 10 10 10 11 12 12 13 12 13 13 14 14 14 15 15 16 16 17 17 18 18 19 19 20 20 21 21
9 10 10 11 11 12 12 12 12 11 11 11 12 11 12 13 13 13 13 14 14 15 15 15 16 16 17 18 19 19 19 20 20 20 21 21 21 21
10 10 11 11 12 12 13 13 13 13 13 12 12 12 13 14 14 15 15 15 16 16 16 16 17 17 18 19 19 19 20 20 21 21 22 22 22 23
11 11 11 12 12 13 13 14 14 14 14 13 13 14 14 15 15 16 16 17 17 17 18 18 19 19 19 20 20 20 21 21 22 22 23 23 24 24
12 12 12 13 13 14 14 14 14 14 14 14 15 16 15 16 16 17 18 18 18 18 19 19 20 20 21 21 21 22 22 23 24 24 24 24 24 24
12 13 13 14 14 14 14 15 15 15 15 15 16 17 16 17 17 17 18 19 19 20 20 20 20 21 21 22 22 22 23 23 24 24 25 25 24 24
13 14 14 14 15 15 15 16 16 17 17 17 17 18 18 18 18 18 19 20 20 21 21 21 21 22 22 22 22 23 23 24 24 24 25 25 25 25
14 15 15 15 16 16 17 17 17 18 18 18 19 19 19 19 19 19 20 20 21 22 22 22 22 23 23 23 24 24 24 24 25 25 26 26 26 26
16 16 16 16 17 18 19 19 18 18 19 19 19 20 20 20 20 20 21 22 23 23 23 24 24 25 24 24 25 25 25 25 26 26 27 27 27 26
17 18 18 18 18 19 19 20 20 19 18 19 20 22 22 22 22 22 22 22 23 23 24 24 25 25 25 25 25 25 25 26 27 27 27 27 27 26
19 19 19 18 18 18 19 19 19 19 19 20 21 22 23 23 23 23 23 23 24 24 25 25 25 25 26 26 26 26 27 27 28 28 28 27 26 25
20 20 20 20 20 20 20 19 19 19 20 21 21 22 22 23 24 24 24 25 25 25 25 26 26 26 27 27 27 27 27 28 28 28 28 27 26 26
21 21 21 21 21 21 21 21 21 21 21 22 22 23 23 24 24 25 25 26 25 25 26 26 26 26 27 27 28 27 28 28 28 27 27 27 26 26
23 22 22 22 22 22 22 22 22 22 23 23 24 24 25 26 26 26 26 26 26 26 26 26 26 27 27 28 28 28 28 29 28 28 27 27 26 26
24 24 24 24 24 24 24 24 24 24 25 25 25 26 27 27 27 28 27 27 27 27 27 27 27 28 28 28 29 29 29 29 29 28 27 27 26 26
26 26 26 27 27 26 26 25 26 26 26 27 27 27 28 28 28 29 29 29 29 28 28 28 29 28 28 29 29 29 29 29 29 28 28 27 26 26
30 29 28 29 28 28 27 27 27 27 27 27 28 28 29 30 30 30 30 29 29 29 28 28 29 28 29 29 29 29 29 29 29 28 28 27 27 26
32 32 31 31 31 31 29 29 28 28 28 29 29 30 30 30 30 31 31 30 29 28 28 29 30 30 29 29 30 30 30 29 28 28 28 27 27 27
33 32 32 32 31 30 30 30 29 29 29 29 30 31 31 31 31 31 32 31 30 30 30 30 30 29 30 30 30 30 29 29 28 28 28 28 28 28
32 32 31 31 31 31 31 31 31 31 31 31 32 32 33 32 32 32 33 33 32 31 31 30 29 30 30 30 31 30 30 29 29 29 28 28 28 27
32 32 32 32 33 32 32 32 33 33 34 33 33 34 34 34 34 33 33 33 32 32 32 31 30 31 31 31 31 31 31 31 31 30 29 28 28 27
32 33 33 34 34 34 34 34 34 34 35 35 35 35 35 34 33 33 33 33 33 33 33 32 32 32 32 32 32 31 31 32 31 29 28 28 27 27
33 33 34 34 35 35 35 36 35 35 35 35 36 35 35 34 33 33 33 33 33 33 33 33 33 32 32 33 32 31 31 31 31 30 29 28 28 27

GEFSNE_500_meanwind_300.txt.gz
Wind_Speed
9 9 9 10 10 10 11 11 10 10 11 11 11 11 11 11 11 12 12 13 13 14 14 14 15 16 16 17 17 17 18 18 19 19 20 20 21 21
10 10 10 11 11 11 12 12 12 12 12 12 13 13 13 12 12 13 14 14 15 15 15 15 16 17 17 18 19 18 18 19 19 20 21 21 22 21
11 11 11 11 12 12 12 13 13 13 13 13 13 13 13 13 13 14 15 15 15 15 16 16 17 18 18 19 19 19 20 20 20 20 21 21 21 21
12 11 11 12 12 12 13 13 13 13 14 14 13 14 14 14 14 15 16 16 16 16 17 18 19 19 20 20 20 20 20 21 21 21 21 21 21 21
13 13 13 13 13 13 14 14 14 15 15 15 14 15 15 16 16 16 17 17 17 17 18 19 20 20 20 21 21 21 20 21 21 21 22 22 22 22
14 14 14 14 14 15 15 15 15 15 16 16 16 17 17 17 17 17 18 18 18 18 19 19 20 20 21 21 21 21 21 21 22 22 22 23 23 23
15 14 14 15 16 16 15 16 16 16 17 17 17 17 17 18 18 19 19 19 19 19 19 20 20 20 20 21 21 21 21 22 22 22 22 23 24 23
15 15 15 16 17 17 17 17 17 17 17 18 18 18 19 19 19 20 20 20 21 21 21 21 21 20 20 20 21 21 21 22 22 22 22 23 24 24
16 16 17 17 17 18 18 19 18 18 18 18 18 19 19 19 20 21 21 21 22 22 22 22 22 21 21 21 21 21 22 23 23 23 24 24 25 24
18 18 18 19 18 18 19 19 19 19 19 19 19 20 20 21 22 22 22 22 22 23 22 22 23 22 22 22 23 23 23 24 24 25 25 25 25 24
20 21 21 21 20 20 20 20 19 19 20 20 21 21 22 23 23 24 24 23 23 23 23 23 23 24 23 23 23 24 24 24 25 25 25 25 25 25
24 24 24 23 22 22 21 21 21 21 21 22 22 22 23 24 25 25 26 25 25 25 25 25 25 25 25 25 25 25 24 25 25 26 26 25 25 25
25 25 26 25 24 24 23 23 23 23 24 24 23 24 24 24 24 25 26 26 26 26 26 27 27 27 27 26 26 26 26 26 26 26 26 26 26 25
27 26 27 27 26 25 24 24 25 25 24 24 25 25 25 26 26 27 27 26 26 27 27 27 27 27 26 26 26 27 28 28 27 27 27 26 26 25
28 28 28 28 27 26 26 26 26 26 26 27 27 27 27 27 28 28 28 27 27 27 28 27 27 26 26 26 26 27 27 27 27 26 26 26 25 25
28 28 28 28 28 28 28 28 28 28 28 28 28 28 28 28 29 29 29 29 29 29 29 28 28 27 27 27 27 27 27 27 27 27 26 26 25 25
30 29 28 29 29 29 29 29 29 29 29 29 30 30 30 30 30 30 30 30 31 31 31 30 29 28 27 27 27 27 27 28 28 27 26 26 26 25
31 30 29 29 29 29 29 29 29 30 30 30 31 32 32 31 31 32 31 31 31 30 30 30 29 28 27 27 28 28 28 29 29 28 27 26 25 25
30 29 30 30 30 30 30 30 30 30 31 31 31 32 32 33 33 32 32 32 31 31 31 31 30 29 29 28 29 30 30 30 29 29 28 27 26 25
29 29 30 31 32 31 31 31 31 31 32 33 33 33 33 32 32 33 33 33 33 33 32 32 31 31 31 30 30 30 31 31 30 29 29 28 26 26
30 30 31 32 32 32 32 32 32 32 32 33 34 34 34 33 33 34 34 34 34 34 33 32 32 32 31 31 31 31 31 30 30 30 30 29 28 27
32 32 32 33 33 32 32 33 33 33 34 35 35 35 36 35 35 35 35 35 34 33 32 32 33 33 32 32 32 32 32 31 31 30 30 30 30 28
34 34 33 33 33 34 35 35 35 35 34 34 35 36 36 37 37 36 35 35 34 33 33 32 33 33 33 33 32 32 32 32 31 30 30 31 30 29

GEFSNE_500_meanwind_306.txt.gz
Wind_Speed
6 6 6 6 6 6 7 7 7 7 8 8 9 10 10 9 9 10 11 12 12 12 12 12 13 13 13 14 15 15 16 17 18 19 19 19 20 20
7 7 7 8 8 9 9 9 9 9 9 10 10 10 11 12 12 12 12 12 12 13 13 13 13 14 14 15 15 16 17 18 19 20 20 20 20 20
9 9 9 9 10 10 10 10 10 11 10 11 11 11 12 13 14 14 12 12 13 14 14 14 15 15 16 16 16 16 17 18 19 20 20 20 20 20
10 10 10 11 11 11 11 12 12 12 12 12 13 13 13 13 13 14 14 14 14 14 14 15 16 17 16 17 17 17 18 19 19 20 20 21 21 21
10 11 11 11 12 12 12 13 14 13 13 13 13 14 14 15 15 15 15 15 15 15 16 16 17 18 18 17 18 18 19 19 19 19 20 21 21 22
12 11 11 12 13 13 13 14 15 15 14 15 15 15 15 16 16 16 16 16 16 17 17 18 18 18 18 19 19 20 20 20 20 20 21 21 21 22
13 13 13 14 14 14 14 15 15 16 16 16 16 16 16 16 17 17 17 17 18 17 18 19 20 20 20 20 21 21 21 21 21 21 21 22 22 22
14 15 15 15 16 16 16 16 17 17 18 18 17 17 18 17 17 18 18 19 19 19 20 20 20 20 21 21 21 22 22 21 22 22 22 22 22 23
16 16 17 17 18 17 18 18 19 19 19 19 18 18 19 19 19 19 20 20 20 20 21 20 20 21 22 22 22 23 23 23 23 22 23 23 23 23
19 18 19 19 19 19 20 20 20 20 21 20 19 20 20 20 20 20 21 21 22 22 21 21 21 22 22 22 23 23 24 24 24 24 23 24 24 24
21 21 22 22 21 21 21 21 21 21 21 21 21 21 21 20 21 21 21 22 22 22 23 23 23 23 23 24 24 24 25 25 25 25 25 25 25 25
23 24 24 23 23 23 23 23 23 22 22 23 23 22 21 21 21 22 22 22 22 22 23 25 25 25 26 26 25 25 25 25 26 27 26 26 26 25
25 25 25 25 25 25 25 26 25 24 24 24 23 22 22 22 23 23 24 24 24 24 25 26 26 27 27 26 26 26 26 26 27 27 27 27 27 27
27 27 26 26 25 26 27 27 27 26 26 25 24 24 23 24 24 25 26 26 26 26 26 27 27 28 28 27 27 27 27 27 28 28 28 28 28 28
28 28 27 26 26 27 28 29 28 28 28 27 26 26 26 27 28 28 27 26 26 26 27 28 28 28 28 28 28 28 27 27 28 29 28 29 29 29
28 29 28 26 27 28 29 29 28 28 28 28 28 29 29 29 29 29 29 29 29 28 29 29 28 29 29 29 29 29 28 28 28 29 28 28 29 29
30 30 28 28 28 29 29 30 30 29 28 27 28 28 29 30 30 30 30 31 31 31 31 31 31 31 31 31 31 30 29 29 29 29 29 29 29 29
31 30 30 30 30 31 31 31 31 30 29 28 28 28 29 30 31 31 32 32 31 31 31 31 32 32 32 32 32 32 31 30 30 29 30 29 29 28
32 33 33 32 32 32 31 31 31 31 30 30 29 29 30 31 31 32 33 33 32 32 32 33 33 33 33 33 32 33 33 32 32 31 31 31 30 29
33 33 33 33 33 32 31 31 31 30 30 30 31 32 32 32 33 33 33 32 33 34 34 34 34 35 34 34 33 33 33 33 33 32 31 30 30 29
33 33 33 33 33 32 32 32 31 30 31 31 32 32 33 33 33 33 33 33 34 35 35 35 35 35 35 34 33 33 33 32 32 32 31 31 30 29
34 33 33 33 33 32 32 32 32 32 32 32 32 33 33 33 33 33 34 34 34 35 35 35 35 35 34 34 34 33 32 31 31 32 31 31 30 30
33 33 33 33 33 32 32 32 32 32 32 33 33 33 33 33 34 34 34 34 34 34 34 34 34 34 34 34 34 33 32 31 31 31 30 31 31 31